This demonstration page uses our WeatherBlox Daily Observations layout. Learn more.

40.92945, -100.16068

Hourly Observations for January 24, 2015

Temp ( °F °C ) Dew Point ( °F °C ) Humidity (%) Winds ( mph kmh ) Pressure ( in mb ) Visibility ( mi km ) Precip ( " mm )
12:15 am 00:15 Clear 32 0.2 28 -2.3 84 84 WNW 13 20 30.21 1023 10 16.0934 N/A
12:35 am 00:35 Clear 32 0 28 -2.5 83 83 WNW 10 17 30.18 1022 10 16.0934 N/A
12:55 am 00:55 Clear 32 -0.2 28 -2.5 85 85 WNW 12 19 30.18 1022 10 16.0934 N/A
1:15 am 01:15 Clear 32 0 28 -2.2 85 85 WNW 13 20 30.15 1021 10 16.0934 N/A
1:35 am 01:35 Clear 32 -0.1 28 -2.3 85 85 WNW 13 20 30.15 1021 10 16.0934 N/A
1:55 am 01:55 Clear 31 -0.3 28 -2.5 85 85 WNW 13 20 30.15 1021 10 16.0934 N/A
2:15 am 02:15 Clear 31 -0.6 27 -2.6 87 87 WNW 12 19 30.15 1021 10 16.0934 N/A
2:35 am 02:35 Clear 30 -1 27 -3 86 86 WNW 10 17 30.15 1021 10 16.0934 N/A
2:55 am 02:55 Clear 28 -2 26 -3.5 90 90 WNW 8 13 30.18 1022 10 16.0934 N/A
3:15 am 03:15 Clear 28 -2.5 25 -3.8 91 91 W 9 15 30.18 1022 10 16.0934 N/A
3:35 am 03:35 Clear 27 -2.7 25 -4.1 90 90 WNW 8 13 30.18 1022 10 16.0934 N/A
3:55 am 03:55 Clear 26 -3.1 24 -4.5 90 90 NW 5 7 30.18 1022 10 16.0934 N/A
4:15 am 04:15 Clear 27 -2.7 25 -3.9 92 92 NW 6 9 30.18 1022 10 16.0934 N/A
4:35 am 04:35 Clear 28 -2.5 25 -4 90 90 WNW 8 13 30.18 1022 10 16.0934 N/A
4:55 am 04:55 Clear 27 -3 24 -4.4 90 90 WNW 10 17 30.18 1022 10 16.0934 N/A
5:15 am 05:15 Clear 26 -3.5 23 -4.9 90 90 W 8 13 30.18 1022 10 16.0934 N/A
5:35 am 05:35 Clear 25 -3.8 23 -5 91 91 WNW 8 13 30.18 1022 10 16.0934 N/A
5:55 am 05:55 Clear 26 -3.6 23 -4.9 91 91 W 6 9 30.15 1021 10 16.0934 N/A
6:15 am 06:15 Clear 25 -3.8 23 -5 91 91 W 8 13 30.15 1021 10 16.0934 N/A
6:35 am 06:35 Clear 25 -3.8 23 -5.1 91 91 WNW 9 15 30.15 1021 10 16.0934 N/A
6:55 am 06:55 Clear 23 -4.8 21 -6.1 91 91 WNW 8 13 30.15 1021 10 16.0934 N/A
7:15 am 07:15 Clear 26 -3.4 24 -4.6 92 92 WNW 9 15 30.15 1021 10 16.0934 N/A
7:35 am 07:35 Clear 26 -3.4 23 -4.8 90 90 WNW 10 17 30.15 1021 10 16.0934 N/A
7:55 am 07:55 Clear 25 -4 22 -5.3 91 91 WNW 8 13 30.12 1020 10 16.0934 N/A
8:15 am 08:15 Sunny 26 -3.5 23 -4.8 91 91 WNW 8 13 30.12 1020 10 16.0934 N/A
8:35 am 08:35 Sunny 26 -3.3 23 -4.8 90 90 WNW 7 11 30.12 1020 10 16.0934 N/A
8:55 am 08:55 Sunny 26 -3.2 24 -4.7 90 90 NW 7 11 30.12 1020 10 16.0934 N/A
9:15 am 09:15 Sunny 31 -0.3 28 -2.5 85 85 WNW 7 11 30.09 1019 10 16.0934 N/A
9:35 am 09:35 Sunny 33 0.6 29 -1.9 84 84 WNW 8 13 30.06 1018 10 16.0934 N/A
9:55 am 09:55 Sunny 34 1.1 29 -1.4 84 84 W 8 13 30.06 1018 10 16.0934 N/A
10:15 am 10:15 Sunny 37 2.6 32 -0.2 82 82 WNW 6 9 30.03 1017 10 16.0934 N/A
10:35 am 10:35 Sunny 38 3.3 32 0 79 79 W 7 11 30.03 1017 10 16.0934 N/A
10:55 am 10:55 Sunny 42 5.8 31 -0.5 64 64 W 12 19 29.94 1014 10 16.0934 N/A
11:15 am 11:15 Sunny 45 7.3 29 -1.4 54 54 W 12 19 29.94 1014 10 16.0934 N/A
11:35 am 11:35 Partly Cloudy 47 8.2 29 -1.9 49 49 W 9 15 29.94 1014 10 16.0934 N/A
11:55 am 11:55 Cloudy 47 8.6 28 -2.5 46 46 W 9 15 29.88 1012 10 16.0934 N/A
12:15 pm 12:15 Cloudy 49 9.7 27 -2.7 42 42 W 12 19 29.88 1012 10 16.0934 N/A
12:35 pm 12:35 Mostly Cloudy 53 11.5 25 -3.8 34 34 W 22 35 29.83 1010 10 16.0934 N/A
12:55 pm 12:55 Partly Cloudy 54 12.2 25 -3.9 33 33 WNW 17 28 29.8 1009 10 16.0934 N/A
1:15 pm 13:15 Sunny 53 11.5 25 -3.9 34 34 W 15 24 29.8 1009 10 16.0934 N/A
1:35 pm 13:35 Sunny 54 12 25 -4.1 32 32 WNW 14 22 29.77 1008 10 16.0934 N/A
1:55 pm 13:55 Sunny 56 13.2 25 -4 30 30 WNW 20 31 29.77 1008 10 16.0934 N/A
2:15 pm 14:15 Partly Cloudy 55 12.7 24 -4.3 31 31 WNW 25 41 29.77 1008 10 16.0934 N/A
2:35 pm 14:35 Mostly Cloudy 55 12.8 25 -4.1 31 31 WNW 21 33 29.77 1008 10 16.0934 N/A
2:55 pm 14:55 Cloudy 54 12.1 24 -4.3 32 32 WNW 21 33 29.74 1007 10 16.0934 N/A
3:15 pm 15:15 Cloudy 53 11.7 25 -3.9 34 34 WNW 15 24 29.74 1007 10 16.0934 N/A
3:35 pm 15:35 Mostly Cloudy 53 11.8 26 -3.6 34 34 WNW 21 33 29.74 1007 10 16.0934 N/A
3:55 pm 15:55 Partly Cloudy 53 11.5 27 -3 36 36 WNW 16 26 29.74 1007 10 16.0934 N/A
4:15 pm 16:15 Mostly Cloudy 52 11.1 28 -2.4 39 39 WNW 14 22 29.74 1007 10 16.0934 N/A
4:40 pm 16:40 Cloudy 51 10.6 29 -1.7 43 43 WNW 12 19 29.74 1007 10 16.0934 N/A
4:55 pm 16:55 Partly Cloudy 50 10.1 29 -1.4 45 45 WNW 12 19 29.77 1008 10 16.0934 N/A
5:15 pm 17:15 Sunny 49 9.6 30 -0.9 48 48 W 12 19 29.77 1008 10 16.0934 N/A
5:35 pm 17:35 Partly Cloudy 48 9.1 30 -1.3 48 48 W 14 22 29.77 1008 10 16.0934 N/A
5:55 pm 17:55 Mostly Cloudy 47 8.4 30 -1.1 52 52 W 14 22 29.77 1008 10 16.0934 N/A
6:15 pm 18:15 Cloudy with Light Rain 47 8.6 31 -0.4 54 54 WNW 15 24 29.8 1009 10 16.0934 N/A
6:35 pm 18:35 Cloudy with Light Drizzle 48 9 33 0.5 56 56 WNW 20 31 29.8 1009 10 16.0934 N/A
6:55 pm 18:55 Cloudy 47 8.6 33 0.7 58 58 WNW 20 31 29.8 1009 10 16.0934 N/A
7:15 pm 19:15 Mostly Cloudy 49 9.2 36 2.4 63 63 WNW 22 35 29.8 1009 10 16.0934 N/A
7:35 pm 19:35 Partly Cloudy 48 8.7 39 3.8 72 72 WNW 21 33 29.8 1009 10 16.0934 N/A
7:55 pm 19:55 Mostly Cloudy 49 9.2 37 2.9 65 65 WNW 25 41 29.8 1009 10 16.0934 N/A
8:15 pm 20:15 Mostly Cloudy 48 9 37 2.6 65 65 NW 26 43 29.8 1009 10 16.0934 N/A
8:35 pm 20:35 Partly Cloudy 47 8.3 36 2.3 66 66 NW 22 35 29.8 1009 10 16.0934 N/A
8:55 pm 20:55 Clear 45 7.2 37 2.5 72 72 WNW 23 37 29.85 1011 10 16.0934 N/A
9:15 pm 21:15 Clear 44 6.6 37 2.7 76 76 NW 22 35 29.85 1011 10 16.0934 N/A
9:35 pm 21:35 Clear 44 6.5 37 2.5 76 76 NW 17 28 29.85 1011 10 16.0934 N/A
9:55 pm 21:55 Clear 44 6.8 36 2 72 72 NW 28 44 29.85 1011 10 16.0934 N/A
10:15 pm 22:15 Clear 45 7.2 34 1 65 65 NW 26 43 29.85 1011 10 16.0934 N/A
10:35 pm 22:35 Clear 43 6.2 34 1 70 70 NW 24 39 29.85 1011 10 16.0934 N/A
10:55 pm 22:55 Clear 43 6.3 32 0 64 64 NW 22 35 29.85 1011 10 16.0934 N/A
11:15 pm 23:15 Partly Cloudy 42 5.7 32 -0.1 67 67 NW 22 35 29.85 1011 10 16.0934 N/A
11:35 pm 23:35 Mostly Cloudy 44 6.7 32 0 63 63 NW 30 48 29.88 1012 10 16.0934 N/A
11:55 pm 23:55 Cloudy 45 7.2 32 -0.1 60 60 NW 28 44 29.88 1012 10 16.0934 N/A

Powered by AerisWeather